Pegu, Burma
Current Conditions -  °F | °C
As of 7:00 PM on Thursday 23 Oct 2014 (Local Time) from VYYY Reporting Station
Few Clouds Few Clouds  
Wind Chill: 81°   Ceiling: Unl
Heat Index: 88°   Visibility: 4mi
Dew Point: 79°   Wind: 3mph
Humidity: 94%   Direction: 180°S
Pressure: 29.85"   Gusts: NA
Location:  17.33°N, 96.5°E
Report Text: VYYY 231300Z 18003KT 6000 FEW018 27/26 Q1011
Loading
Personal Weather Stations






























Interactive Weather Map
Tropical Storm Tracking
New forecast layout! Learn more

10-Day Weather Forecast

Advertisements
Track Severe Weather on mobile